Time,TemperatureF,DewpointF,PressureIn,WindDirection,WindDirectionDegrees,WindSpeedMPH,WindSpeedGustMPH,Humidity,HourlyPrecipIn,Conditions,Clouds,dailyrainin,SoftwareType,DateUTC
2013-09-24 00:14:00,60.0,56.0,30.08,NE,49,0.0,0.0,88,0.00,,,0.00,,2013-09-24 04:14:00,
2013-09-24 00:24:00,60.0,56.0,30.08,NE,49,0.0,3.0,88,0.00,,,0.00,,2013-09-24 04:24:00,
2013-09-24 00:54:00,60.0,57.0,30.08,NE,49,0.0,1.0,89,0.00,,,0.00,,2013-09-24 04:54:00,
2013-09-24 01:13:00,60.0,56.0,30.08,NE,49,1.0,3.0,88,0.00,,,0.00,,2013-09-24 05:13:00,
2013-09-24 01:23:00,60.0,56.0,30.08,NE,49,0.0,2.0,88,0.00,,,0.00,,2013-09-24 05:23:00,
2013-09-24 01:53:00,60.0,56.0,30.08,NE,49,0.0,1.0,88,0.00,,,0.00,,2013-09-24 05:53:00,
2013-09-24 02:13:00,60.0,56.0,30.08,NE,49,0.0,1.0,88,0.00,,,0.00,,2013-09-24 06:13:00,
2013-09-24 02:22:00,60.0,56.0,30.08,NE,49,0.0,0.0,88,0.00,,,0.00,,2013-09-24 06:22:00,
2013-09-24 02:42:00,60.0,57.0,30.08,NE,49,0.0,0.0,89,0.00,,,0.00,,2013-09-24 06:42:00,
2013-09-24 02:52:00,60.0,56.0,30.08,NE,49,0.0,0.0,88,0.00,,,0.00,,2013-09-24 06:52:00,
2013-09-24 03:12:00,59.0,56.0,30.08,NE,49,0.0,1.0,89,0.00,,,0.00,,2013-09-24 07:12:00,
2013-09-24 03:22:00,59.0,56.0,30.08,NE,49,0.0,1.0,89,0.00,,,0.00,,2013-09-24 07:22:00,
2013-09-24 03:52:00,59.0,56.0,30.07,NE,49,0.0,1.0,89,0.00,,,0.00,,2013-09-24 07:52:00,
2013-09-24 04:11:00,59.0,55.0,30.07,NE,49,0.0,1.0,88,0.00,,,0.00,,2013-09-24 08:11:00,
2013-09-24 04:23:00,59.0,56.0,30.07,NE,49,0.0,1.0,89,0.00,,,0.00,,2013-09-24 08:23:00,
2013-09-24 04:42:00,59.0,56.0,30.06,NE,49,0.0,0.0,89,0.00,,,0.00,,2013-09-24 08:42:00,
2013-09-24 04:52:00,59.0,56.0,30.06,NE,49,0.0,0.0,89,0.00,,,0.00,,2013-09-24 08:52:00,
2013-09-24 05:21:00,58.0,54.0,30.06,NE,49,0.0,1.0,87,0.00,,,0.00,,2013-09-24 09:21:00,
2013-09-24 05:43:00,57.0,53.0,30.06,ENE,74,0.0,2.0,86,0.00,,,0.00,,2013-09-24 09:43:00,
2013-09-24 05:53:00,56.0,52.0,30.06,ENE,74,0.0,1.0,88,0.00,,,0.00,,2013-09-24 09:53:00,
2013-09-24 06:23:00,55.0,52.0,30.07,ENE,74,0.0,0.0,88,0.00,,,0.00,,2013-09-24 10:23:00,
2013-09-24 06:53:00,54.0,51.0,30.07,ENE,74,0.0,2.0,89,0.00,,,0.00,,2013-09-24 10:53:00,
2013-09-24 07:22:00,53.0,50.0,30.08,ENE,69,0.0,2.0,89,0.00,,,0.00,,2013-09-24 11:22:00,
2013-09-24 07:52:00,53.0,50.0,30.09,ENE,69,0.0,1.0,90,0.00,,,0.00,,2013-09-24 11:52:00,
2013-09-24 08:12:00,53.0,50.0,30.09,ENE,69,0.0,2.0,90,0.00,,,0.00,,2013-09-24 12:12:00,
2013-09-24 08:22:00,52.0,49.0,30.09,ENE,69,0.0,1.0,90,0.00,,,0.00,,2013-09-24 12:22:00,
2013-09-24 08:42:00,52.0,49.0,30.09,ENE,69,0.0,0.0,91,0.00,,,0.00,,2013-09-24 12:42:00,
2013-09-24 08:52:00,52.0,49.0,30.08,ENE,69,0.0,0.0,91,0.00,,,0.00,,2013-09-24 12:52:00,
2013-09-24 09:22:00,53.0,51.0,30.08,ENE,69,0.0,0.0,94,0.00,,,0.00,,2013-09-24 13:22:00,
2013-09-24 09:52:00,54.0,53.0,30.08,ENE,69,0.0,0.0,95,0.00,,,0.00,,2013-09-24 13:52:00,
2013-09-24 10:21:00,55.0,54.0,30.07,ENE,69,0.0,0.0,97,0.00,,,0.00,,2013-09-24 14:21:00,
2013-09-24 10:52:00,57.0,56.0,30.07,ENE,69,0.0,2.0,97,0.00,,,0.00,,2013-09-24 14:52:00,
2013-09-24 11:22:00,58.0,57.0,30.07,SW,223,0.0,1.0,97,0.00,,,0.00,,2013-09-24 15:22:00,
2013-09-24 11:43:00,59.0,57.0,30.07,SW,221,0.0,3.0,94,0.00,,,0.00,,2013-09-24 15:43:00,
2013-09-24 11:53:00,59.0,56.0,30.06,SW,220,0.0,2.0,91,0.00,,,0.00,,2013-09-24 15:53:00,
2013-09-24 12:13:00,61.0,57.0,30.07,NE,40,1.0,5.0,88,0.00,,,0.00,,2013-09-24 16:13:00,
2013-09-24 12:23:00,62.0,57.0,30.06,ENE,74,1.0,5.0,85,0.00,,,0.00,,2013-09-24 16:23:00,
2013-09-24 12:53:00,64.0,58.0,30.05,NE,52,1.0,5.0,81,0.00,,,0.00,,2013-09-24 16:53:00,
2013-09-24 13:13:00,65.0,59.0,30.04,ENE,63,2.0,6.0,82,0.00,,,0.00,,2013-09-24 17:13:00,
2013-09-24 13:23:00,65.0,59.0,30.04,NE,54,1.0,6.0,80,0.00,,,0.00,,2013-09-24 17:23:00,
2013-09-24 13:54:00,66.0,60.0,30.03,North,1,2.0,4.0,80,0.00,,,0.00,,2013-09-24 17:54:00,
2013-09-24 14:22:00,67.0,59.0,30.02,NE,34,0.0,3.0,76,0.00,,,0.00,,2013-09-24 18:22:00,
2013-09-24 14:52:00,69.0,60.0,30.01,North,359,2.0,7.0,74,0.00,,,0.00,,2013-09-24 18:52:00,
2013-09-24 15:11:00,70.0,60.0,30.01,NE,48,5.0,8.0,71,0.00,,,0.00,,2013-09-24 19:11:00,
2013-09-24 15:22:00,69.0,60.0,30.01,NE,45,2.0,7.0,72,0.00,,,0.00,,2013-09-24 19:22:00,
2013-09-24 15:52:00,69.0,60.0,30.00,North,11,0.0,6.0,74,0.00,,,0.00,,2013-09-24 19:52:00,
2013-09-24 16:11:00,69.0,60.0,30.00,NNW,339,3.0,8.0,73,0.00,,,0.00,,2013-09-24 20:11:00,
2013-09-24 16:22:00,70.0,60.0,29.99,NNE,27,4.0,9.0,71,0.00,,,0.00,,2013-09-24 20:22:00,
2013-09-24 16:52:00,73.0,62.0,29.98,ENE,65,2.0,5.0,68,0.00,,,0.00,,2013-09-24 20:52:00,
2013-09-24 17:22:00,70.0,60.0,29.98,NNE,27,1.0,4.0,70,0.00,,,0.00,,2013-09-24 21:22:00,
2013-09-24 17:43:00,70.0,61.0,29.97,North,0,2.0,6.0,72,0.00,,,0.00,,2013-09-24 21:43:00,
2013-09-24 17:54:00,70.0,60.0,29.97,North,0,1.0,9.0,70,0.00,,,0.00,,2013-09-24 21:54:00,
2013-09-24 18:23:00,69.0,60.0,29.98,NNE,32,0.0,3.0,73,0.00,,,0.00,,2013-09-24 22:23:00,
2013-09-24 18:53:00,68.0,60.0,29.98,NNE,14,1.0,3.0,76,0.00,,,0.00,,2013-09-24 22:53:00,
2013-09-24 19:22:00,67.0,60.0,29.98,North,352,0.0,1.0,77,0.02,,,0.02,,2013-09-24 23:22:00,
2013-09-24 19:53:00,65.0,59.0,29.98,NNE,30,0.0,2.0,81,0.02,,,0.02,,2013-09-24 23:53:00,
2013-09-24 20:12:00,64.0,59.0,29.98,NNE,30,0.0,0.0,83,0.00,,,0.02,,2013-09-25 00:12:00,
2013-09-24 20:22:00,64.0,59.0,29.98,NNE,30,0.0,0.0,84,0.00,,,0.02,,2013-09-25 00:22:00,
2013-09-24 20:42:00,64.0,60.0,29.98,NNE,30,0.0,0.0,86,0.00,,,0.02,,2013-09-25 00:42:00,
2013-09-24 20:52:00,63.0,59.0,29.99,NNE,30,0.0,0.0,86,0.00,,,0.02,,2013-09-25 00:52:00,
2013-09-24 21:12:00,63.0,59.0,29.98,NNE,30,0.0,0.0,86,0.00,,,0.02,,2013-09-25 01:12:00,
2013-09-24 21:21:00,63.0,59.0,29.98,NNE,30,0.0,0.0,86,0.00,,,0.02,,2013-09-25 01:21:00,
2013-09-24 21:42:00,62.0,58.0,29.98,NNE,30,0.0,0.0,86,0.00,,,0.02,,2013-09-25 01:42:00,
2013-09-24 21:52:00,62.0,58.0,29.98,NNE,30,0.0,2.0,86,0.00,,,0.02,,2013-09-25 01:52:00,
2013-09-24 22:12:00,61.0,57.0,29.98,NNE,30,0.0,0.0,87,0.00,,,0.02,,2013-09-25 02:12:00,
2013-09-24 22:22:00,61.0,57.0,29.99,NNE,30,0.0,0.0,87,0.00,,,0.02,,2013-09-25 02:22:00,
2013-09-24 22:42:00,60.0,56.0,29.98,NNE,30,0.0,1.0,88,0.00,,,0.02,,2013-09-25 02:42:00,
2013-09-24 22:52:00,60.0,56.0,29.98,NNE,30,0.0,1.0,88,0.00,,,0.02,,2013-09-25 02:52:00,
2013-09-24 23:23:00,60.0,57.0,29.98,NE,38,0.0,1.0,90,0.00,,,0.02,,2013-09-25 03:23:00,
2013-09-24 23:54:00,59.0,56.0,29.98,NE,38,0.0,0.0,90,0.00,,,0.02,,2013-09-25 03:54:00,